Location: Blankensee
(53.5126°N, 14.3055°E)
Time: 17:59:08
(UTC+00:00)

Cosmos 1655 Rocket - Pass Details

Date: 08 August 2020
Orbit: 969 x 1007 km, 83.0° (Epoch: 19 September)

Event Time Altitude Azimuth Distance (km) Brightness Sun altitude
Rises 01:13:13 0° 348° (NNW) 3,711 7.8 -15.5°
Reaches altitude 10° 01:15:45 10° 348° (NNW) 2,753 7.0 -15.3°
Maximum altitude 01:22:04 83° 262° (W) 992 4.0 -14.8°
Enters shadow 01:28:04 11° 175° (S) 2,629 5.8 -14.3°
